Location: Fauquembergues
(50.6005°N, 2.0987°E)
Time: 20:37:20
(UTC+00:00)

Cosmos 1437 Rocket - Pass Details

Date: 14 July 2020
Orbit: 506 x 562 km, 81.2° (Epoch: 14 August)

Event Time Altitude Azimuth Distance (km) Brightness Sun altitude
Rises 02:05:06 0° 341° (NNW) 2,744 7.0 -12.5°
Reaches altitude 10° 02:07:25 10° 332° (NNW) 1,836 5.9 -12.3°
Maximum altitude 02:11:07 36° 266° (W) 880 3.6 -12.0°
Enters shadow 02:13:32 18° 209° (SSW) 1,358 4.2 -11.8°
